Home   Weather   Valdez   Past weeks
Flag for USA

Past Weather in Valdez, Alaska, USA — Yesterday and Last 2 Weeks

Now
33 °F

Light rain. Fog.


Feels Like: 33 °F
Forecast: 42 / 33 °F
Wind: No wind

Location: Valdez 2

Current Time: Mar 18, 2019 at 10:12:21 pm

Latest Report: Mar 18, 2019 at 8:56 pm


Visibility: 1 mi

Pressure: 29.73 "Hg

Humidity: 96%

Dew Point: 32 °F

Location of ValdezLocation

Past Weather in Valdez — Graph

°F

Valdez Temperature Yesterday

Maximum temperature yesterday: 36 °F (at 12:10 am)
Minimum temperature yesterday: 34 °F (at 3:23 am)
Average temperature yesterday: 35 °F

High & Low Weather Summary for the Past Weeks

 TemperatureHumidityPressure
High41 °F (Mar 13, 2:56 pm)100% (Mar 10, 9:56 pm)30.61 "Hg (Mar 10, 9:56 pm)
Low12 °F (Mar 6, 5:56 am)41% (Mar 13, 2:56 pm)29.01 "Hg (Mar 10, 9:33 am)
Average31 °F86%29.76 "Hg
* Reported Mar 3 7:56 pm — Mar 18 8:56 pm, Valdez. Weather by CustomWeather, © 2019

Note: Actual official high and low records may vary slightly from our data, if they occured in-between our weather recording intervals... More about our weather records

Advertising

Valdez Weather History for the Previous 24 Hours

Scroll right to see more
 ConditionsComfort  
Time TempWeatherWind HumidityBarometerVisibility
8:56 pm
Mon, Mar 18
33 °FLight rain. Fog.No wind96%29.73 "Hg1 mi
7:56 pm34 °FLight rain. Fog.No wind97%29.70 "Hg4 mi
6:56 pm36 °FLight rain. Fog.No wind97%29.69 "Hg5 mi
5:56 pm37 °FLight rain. Cloudy.No wind96%29.68 "Hg1 mi
4:56 pm37 °FLight rain. Mostly cloudy.No wind96%29.68 "Hg1 mi
3:56 pm37 °FLight rain. Mostly cloudy.No wind100%29.69 "Hg1 mi
2:56 pm37 °FLight rain. Mostly cloudy.No wind96%29.70 "Hg1 mi
1:56 pm37 °FLight rain. Mostly cloudy.No wind100%29.70 "Hg6 mi
12:56 pm38 °FLight rain. Mostly cloudy.No wind97%29.71 "Hg7 mi
11:56 am37 °FLight rain. Mostly cloudy.No wind96%29.69 "Hg5 mi
10:56 am37 °FMostly cloudy.No wind96%29.69 "Hg5 mi
10:23 am36 °FLight rain. More clouds than sun.3 mph100%29.61 "Hg7 mi
9:56 am36 °FLight rain. Mostly cloudy.3 mph97%29.68 "Hg8 mi
9:42 am36 °FLight rain. Overcast.No wind100%29.61 "Hg10 mi
8:56 am35 °FLight rain. Fog.No wind100%29.67 "Hg5 mi
7:56 am34 °FLight rain. More clouds than sun.No wind100%29.66 "Hg3 mi
6:56 am35 °FLight rain. Mostly cloudy.No wind96%29.64 "Hg2 mi
6:13 am36 °FLight rain. Fog.3 mph93%29.56 "Hg3 mi
5:56 am35 °FLight rain. Mostly cloudy.No wind96%29.63 "Hg7 mi
5:34 am34 °FLight rain. Fog.5 mph100%29.56 "Hg6 mi
5:24 am34 °FLight rain. Fog.5 mph100%29.56 "Hg5 mi
4:56 am35 °FLight rain. Fog.5 mph96%29.64 "Hg4 mi
4:36 am36 °FLight rain. Fog.6 mph93%29.56 "Hg4 mi
4:03 am36 °FRain. Fog.No wind93%29.55 "Hg4 mi
3:56 am35 °FRain. Fog.7 mph96%29.62 "Hg5 mi
3:28 am34 °FLight rain. Fog.6 mph100%29.53 "Hg4 mi
3:03 am34 °FLight rain. Fog.5 mph100%29.54 "Hg2 mi
2:56 am35 °FLight rain. Overcast.3 mph92%29.62 "Hg7 mi
1:56 am36 °FLight rain. Mostly cloudy.No wind92%29.61 "Hg8 mi
12:56 am35 °FLight rain. Overcast.No wind96%29.59 "Hg10 mi
11:32 pm
Sun, Mar 17
34 °FLow clouds.No wind100%29.53 "Hg8 mi
10:56 pm34 °FLight rain. Mostly cloudy.No wind97%29.59 "Hg8 mi
Weather by CustomWeather, © 2019

See weather overview